Powrót do katalogu

STARLINK-6052

AktywnyŁącznośćVLEO
NORAD 56793·PAYLOAD·🇺🇸 United States

Wystrzelony May 31, 2023 z Vandenberg Space Force Base

Loading…

Następne Przeloty (najbliższe 24 godziny)

TLE

ŚwieżeSource: CelesTrak SupGP

Epoka: Sep 14, 2026, 20:44 UTC

1 56793C 23078AC  26257.86437500  .00041723  00000+0  34963-2 0  2575
2 56793  70.0011 227.4751 0003335 262.1859 210.7421 14.98311710    19

Śledź STARLINK-6052 w czasie rzeczywistym z AllMySat

Download on the App Store